METEOR 2-2

Satellite information

Favourite Embed

Satellite Type and Status

PAYLOADIN ORBIT

Key statistics

Satellite METEOR 2-2 at a glance.

Uptime

17820

Days in orbit

Revolutions

≈ 14.0

Per day

Orbit

LEO

Low Earth Orbit

Inclination

81.3

Latest

Satellite identification and parameters

Extended collection of information and parameters for METEOR 2-2.

Object identification

Identified? True

Debris? False

Object name: METEOR 2-2

International designator: 1977-002A

Object number (NORAD): 9661

Object ID (CCSDS): 9661

Country: COMMONWEALTH OF INDEPENDENT STATES (CIS)

Current information (Y/N): Y

RCS size: LARGE

Orbital parameters

Period: 102.552 minutes

Inclination: 81.2645 deg

SMA: 7257.548 km

Apoapsis: 886.287 km

Periapsis: 872.539 km

RAAN: 324.401 deg

Eccentricy: 0.0009471

Argument of periapsis: 307.304 deg

Mean anomaly: 52.7264 deg

Mean motion: 14.04164181 rev/day

Mean motion (dot): 0.00000243 rev/day2

B* drag term: 0.00014543791 1/REarth

Two-line elements (TLE)

Creation date: Oct. 20, 2025, 6:08 p.m.

Reference frame: TEME

Reference center: EARTH

Epoch: Oct. 20, 2025, 2:42 p.m. UTC

TLE line 0: 0 METEOR 2-2

TLE line 1: 1 09661U 77002A 25293.61287635 .00000243 00000-0 14544-3 0 9997

TLE line 2: 2 09661 81.2645 324.4010 0009471 307.3040 52.7264 14.04164181496715

Live tracking on map

Real-time ground track for satellite METEOR 2-2.

In-orbit conjunctions

A list of the most updated potential collisions computed for object METEOR 2-2.

Target Orbit TCA Probability of collision Miss distance Type
CZ-6A DEB SSO 2025-10-14 12:09:31 0.0009552741 652.0 (m) DEBRIS
THOR ABLESTAR DEB LEO 2025-05-15 01:51:25 0.0006260059 851.0 (m) DEBRIS
DMSP 5D-2 F13 DEB SSO 2025-04-11 22:06:51 0.0005777975 168.0 (m) DEBRIS
FENGYUN 1C DEB SSO 2025-02-18 08:37:37 0.0001174307 476.0 (m) DEBRIS
SL-14 DEB LEO 2024-11-23 17:08:59 0.0001006045 270.0 (m) DEBRIS

Associated space launch

Second generation soviet meteorological satellite

METEOR 2-2 was lifted into orbit during the mission ‘Vostok 8A92M | Meteor-2 2’, on board a Vostok 8A92M space rocket.

The launch took place on Jan. 6, 1977, 11:17 p.m. from 43/3 (43L).

For more information about the launch, click the button.

Launch to space Vostok 8A92M | Meteor-2 2
Vostok 8A92M | Meteor-2 2

Agency: N/A

Status: Launch Successful

Launch date: Jan. 6, 1977, 11:17 p.m. UTC

Rocket: Vostok 8A92M

Launch pad: 43/3 (43L)

Location: Plesetsk Cosmodrome, Russian Federation

...

Latest news about this satellite

There are no fresh news available about this satellite. Check back as we update our databases every day.


Newsletter sign-up

Weekly statistics, charts and insights to help you stay on top of the space industry.